Weather History for Winner, SD

Change the Weather History Date:

Tuesday, September 10, 2013

  Actual Average Record
Temperature  
Mean Temperature 73 °F 67 °F  
Max Temperature 81 °F 80 °F 101 °F (2012)
Min Temperature 64 °F 54 °F 46 °F (2007)
Degree Days  
Heating Degree Days 0 3  
Month to date heating degree days 0 21  
Since 1 July heating degree days 7 35  
Cooling Degree Days 8 4  
Month to date cooling degree days 139 57  
Year to date cooling degree days 930 863  
Growing Degree Days 22 (Base 50)    
Moisture  
Dew Point 61 °F    
Average Humidity 66    
Maximum Humidity 93    
Minimum Humidity 39    
Precipitation  
Precipitation 0.23 in 0.07 in 0.23 in (2013)
Month to date precipitation 0.27 0.65  
Year to date precipitation 16.26 17.65  
Sea Level Pressure  
Sea Level Pressure 29.98 in    
Wind  
Wind Speed 7 mph (WSW)    
Max Wind Speed 20 mph    
Max Gust Speed 24 mph    
Visibility 10 miles    
Events Rain    
T = Trace of Precipitation, MM = Missing Value Source: NWS Daily Summary

Daily Weather History Graph

Daily Weather History Graph

Search for Another Location

Airport:

Trip Planner

Search our weather history database for the weather conditions in past years. The results will help you decide how hot, cold, wet, or windy it might be!

Date:

Astronomy

Sep. 10, 2013 Rise Set
Actual Time 7:13 AM CDT 7:58 PM CDT
Civil Twilight 6:44 AM CDT 8:26 PM CDT
Nautical Twilight 6:10 AM CDT 9:01 PM CDT
Astronomical Twilight 5:34 AM CDT 9:36 PM CDT
Moon 12:51 PM CDT (9/10) 10:51 PM CDT (9/10)
Length of Visible Light 13h 42m
Length of Day
12h 44m
Waxing Crescent, 28% of the Moon is Illuminated
Sep 10
Waxing Crescent
Sep 12
First Quarter
Sep 19
Full
Sep 26
Last Quarter
Oct 4
New

Hourly Weather History & Observations

Time (CDT) Temp. Heat Index Dew Point Humidity Pressure Visibility Wind Dir Wind Speed Gust Speed Precip Events Conditions
12:53 AM 70.0 °F - 64.0 °F 81% 29.88 in 10.0 mi Calm Calm - 0.00 in   Overcast
1:53 AM 68.0 °F - 64.9 °F 90% 29.94 in 4.0 mi SSW 19.6 mph 24.2 mph 0.07 in Rain Heavy Rain
2:53 AM 66.0 °F - 61.0 °F 84% 29.93 in 10.0 mi SSW 6.9 mph - 0.11 in Rain Light Rain
3:53 AM 64.9 °F - 61.0 °F 87% 29.93 in 10.0 mi SSW 5.8 mph - 0.04 in Rain Light Rain
4:53 AM 64.9 °F - 62.1 °F 90% 29.92 in 10.0 mi South 8.1 mph - 0.01 in   Mostly Cloudy
5:53 AM 64.0 °F - 62.1 °F 93% 29.91 in 10.0 mi West 4.6 mph - N/A   Overcast
6:53 AM 64.0 °F - 62.1 °F 93% 29.92 in 10.0 mi Calm Calm - N/A   Clear
7:53 AM 64.9 °F - 61.0 °F 87% 29.96 in 10.0 mi SW 6.9 mph - N/A   Clear
8:53 AM 64.9 °F - 62.1 °F 90% 29.97 in 10.0 mi WSW 5.8 mph - N/A   Scattered Clouds
9:53 AM 68.0 °F - 63.0 °F 84% 30.00 in 10.0 mi West 8.1 mph - N/A   Clear
10:53 AM 73.0 °F - 63.0 °F 71% 29.99 in 10.0 mi West 11.5 mph - N/A   Clear
11:53 AM 75.0 °F - 62.1 °F 64% 30.01 in 10.0 mi WNW 9.2 mph - N/A   Clear
12:53 PM 75.9 °F - 61.0 °F 60% 30.01 in 10.0 mi NNW 6.9 mph - N/A   Clear
1:53 PM 78.1 °F - 59.0 °F 52% 30.01 in 10.0 mi West 4.6 mph - N/A   Clear
2:53 PM 80.1 °F 80.4 °F 57.0 °F 45% 30.00 in 10.0 mi Variable 5.8 mph - N/A   Clear
3:53 PM 80.1 °F 80.2 °F 55.9 °F 43% 30.00 in 10.0 mi NW 5.8 mph - N/A   Clear
4:53 PM 80.1 °F 80.0 °F 54.0 °F 40% 30.00 in 10.0 mi WSW 4.6 mph - N/A   Clear
5:53 PM 78.1 °F - 60.1 °F 54% 30.00 in 10.0 mi South 8.1 mph - N/A   Clear
6:53 PM 75.0 °F - 61.0 °F 62% 30.01 in 10.0 mi SW 5.8 mph - N/A   Partly Cloudy
7:53 PM 73.9 °F - 62.1 °F 66% 30.02 in 10.0 mi SW 4.6 mph - 0.00 in Rain Light Rain
8:53 PM 72.0 °F - 63.0 °F 73% 30.04 in 10.0 mi WSW 6.9 mph - 0.00 in   Clear
9:53 PM 71.1 °F - 60.1 °F 68% 30.05 in 10.0 mi SW 4.6 mph - N/A   Clear
10:53 PM 68.0 °F - 61.0 °F 78% 30.06 in 10.0 mi West 5.8 mph - N/A   Clear
11:53 PM 66.9 °F - 59.0 °F 76% 30.07 in 10.0 mi WSW 5.8 mph - N/A   Clear